Погода в Нижних Пенах

Россия / Белгородская область     51°00′18″N   35°57′01″E
темп.,
°C
ветер,
м/с
пор.,
м/с
влажн.,
%
обл.,
%
осадки,
мм/ч
давл.,
гПа
погр.,
м
24 сентября, пт
пт2400:00+7з2493100 0.2 1012142
03:00+7юз249285 0.3 1011189
06:00+7ююз3891100 0.1 1010329
09:00+8ю61182100 0.1 1008702
12:00+11ююз91160100 0.0 10061408
15:00+8ю81386100 0.9 10051004
18:00+8ю81292100 3.0 10041020
21:00+8ю61194100 3.6 1004694
25 сентября, сб
сб2500:00+8ю4896100 0.0 1004407
03:00+8ююз3596100 0.0 1004272
06:00+8ююз239678 0.0 1006133
09:00+9зюз118895 0.0 1008302
12:00+13зюз346763 0.1 10091074
15:00+14з565893 0.3 10101492
18:00+11з5878100 0.1 1012391
21:00+10юз3886100 0.1 1012308
26 сентября, вс
вс2600:00+10зюз5991100 0.4 1012488
03:00+10юз61192100 1.1 1011482
06:00+11з61293100 0.2 1010723
09:00+12сз71285100 0.3 1011912
12:00+12сз7116586 0.1 10121382
15:00+15сз9124974 0.1 10132011
18:00+12сз8126376 0.1 10141179
21:00+9сз714785 0.1 1015635
27 сентября, пн
пн2700:00+7сз613865 0.0 1016553
03:00+6сз5129230 0.0 1017413
06:00+7ссз51088100 0.0 1018529
09:00+9ссз51083100 0.0 1019606
12:00+12с567080 0.0 1020952
15:00+13с566436 0.4 10211049
18:00+11с467350 0.1 1022206
21:00+11ссв4871100 0.1 1023479
28 сентября, вт
вт2800:00+8ссв3583100 0.0 1024103
03:00+6св349287 0.0 102565
06:00+5ссв229441 0.0 102632
09:00+9св3584100 0.1 1026257
12:00+11всв4575100 0.1 1027520
15:00+12св4467100 0.3 1028769
18:00+11св357092 0.0 1028189
21:00+8всв488380 0.0 1029229